Regional Weather Roundup
Issued by NWS

Home | Current Version | Previous Version | Graphics & Text | Print | Product List | Glossary On
Versions: 1 2 3 4 5 6 7 8 9 10 11 12 13 14 15 16 17 18 19 20 21 22 23 24 25 26 27 28 29 30 31 32 33 34 35 36 37 38 39 40 41 42 43 44 45 46 47 48 49 50
000
ASUS45 KBOI 260110
RWRID

IDAHO REGIONAL WEATHER ROUNDUP
NATIONAL WEATHER SERVICE BOISE ID
700 PM MDT SUN SEP 25 2016

NOTE: "FAIR" INDICATES FEW OR NO CLOUDS BELOW 12000 FEET
WITH NO SIGNIFICANT WEATHER AND/OR OBSTRUCTIONS TO VISIBILITY

IDZ012-014-260200-
SOUTHWEST IDAHO


CITY           SKY/WX    TMP DP  RH WIND       PRES   REMARKS
BOISE          CLEAR     73  32  22 NW8       30.36F
CALDWELL       CLEAR     72  38  29 W5        30.36F
MOUNTAIN HOME  CLEAR     74  28  18 NW6       30.36F
$$

IDZ016-017-260200-
SOUTHCENTRAL IDAHO


CITY           SKY/WX    TMP DP  RH WIND       PRES   REMARKS
BURLEY         CLEAR     60  39  45 W5        30.42S
JEROME         CLEAR     65  41  41 CALM      30.42F
TWIN FALLS     CLEAR     64  34  32 W3        30.43S
$$

IDZ019>023-260200-
SOUTHEAST IDAHO


CITY           SKY/WX    TMP DP  RH WIND       PRES   REMARKS
IDAHO FALLS    CLEAR     62  38  40 S8        30.44F
POCATELLO      CLEAR     62  36  37 CALM      30.44F
REXBURG        CLEAR     61  36  39 S5        30.44F
$$

IDZ006-010-011-018-031-032-260200-
CENTRAL IDAHO MOUNTAINS


CITY           SKY/WX    TMP DP  RH WIND       PRES   REMARKS
MCCALL         CLEAR     68  35  29 NW9       30.44F
HAILEY         PTCLDY    59  48  67 SE6       30.48R
STANLEY          N/A     64  40  41 W3        30.50S
SALMON         CLEAR     64  39  39 SW3       30.39S
CHALLIS        CLEAR     64  39  39 SW5       30.42S
$$

IDZ002-004-006-007-026-260200-
NORTHERN IDAHO


CITY           SKY/WX    TMP DP  RH WIND       PRES   REMARKS
LEWISTON       CLEAR     78  36  21 N3        30.32F
LOWELL           N/A     59  49  69 CALM      30.36S
COEUR D`ALENE  NOT AVBL
MULLAN PASS    CLEAR     51  40  65 VRB3      30.50F
$$



USA.gov is the U.S. government's official web portal to all federal, state and local government web resources and services.